Year,Month,Day,Hour,Minute,Value (Times are PST for temperature in C)
2021,04,03,00,00,6.60
2021,04,03,00,01,6.60
2021,04,03,00,02,6.50
2021,04,03,00,03,6.50
2021,04,03,00,04,6.50
2021,04,03,00,05,6.50
2021,04,03,00,06,6.50
2021,04,03,00,07,6.50
2021,04,03,00,08,6.40
2021,04,03,00,09,6.40
2021,04,03,00,10,6.40
2021,04,03,00,11,6.40
2021,04,03,00,12,6.40
2021,04,03,00,13,6.40
2021,04,03,00,14,6.40
2021,04,03,00,15,6.40
2021,04,03,00,16,6.40
2021,04,03,00,17,6.40
2021,04,03,00,18,6.40
2021,04,03,00,19,6.40
2021,04,03,00,20,6.40
2021,04,03,00,21,6.50
2021,04,03,00,22,6.50
2021,04,03,00,23,6.50
2021,04,03,00,24,6.50
2021,04,03,00,25,6.50
2021,04,03,00,26,6.50
2021,04,03,00,27,6.50
2021,04,03,00,28,6.50
2021,04,03,00,29,6.50
2021,04,03,00,30,6.50
2021,04,03,00,31,6.50
2021,04,03,00,32,6.50
2021,04,03,00,33,6.50
2021,04,03,00,34,6.40
2021,04,03,00,35,6.40
2021,04,03,00,36,6.40
2021,04,03,00,37,6.40
2021,04,03,00,38,6.40
2021,04,03,00,39,6.40
2021,04,03,00,40,6.40
2021,04,03,00,41,6.40
2021,04,03,00,42,6.40
2021,04,03,00,43,6.40
2021,04,03,00,44,6.50
2021,04,03,00,45,6.50
2021,04,03,00,46,6.50
2021,04,03,00,47,6.50
2021,04,03,00,48,6.50
2021,04,03,00,49,6.40
2021,04,03,00,50,6.40
2021,04,03,00,51,6.40
2021,04,03,00,52,6.40
2021,04,03,00,53,6.40
2021,04,03,00,54,6.40
2021,04,03,00,55,6.40
2021,04,03,00,56,6.40
2021,04,03,00,57,6.50
2021,04,03,00,58,6.50
2021,04,03,00,59,6.50
2021,04,03,01,00,6.50
2021,04,03,01,01,6.50
2021,04,03,01,02,6.50
2021,04,03,01,03,6.50
2021,04,03,01,04,6.50
2021,04,03,01,05,6.50
2021,04,03,01,06,6.60
2021,04,03,01,07,6.60
2021,04,03,01,08,6.60
2021,04,03,01,09,6.60
2021,04,03,01,10,6.60
2021,04,03,01,11,6.60
2021,04,03,01,12,6.60
2021,04,03,01,13,6.60
2021,04,03,01,14,6.60
2021,04,03,01,15,6.60
2021,04,03,01,16,6.60
2021,04,03,01,17,6.60
2021,04,03,01,18,6.60
2021,04,03,01,19,6.50
2021,04,03,01,20,6.50
2021,04,03,01,21,6.40
2021,04,03,01,22,6.40
2021,04,03,01,23,6.40
2021,04,03,01,24,6.40
2021,04,03,01,25,6.40
2021,04,03,01,26,6.40
2021,04,03,01,27,6.40
2021,04,03,01,28,6.40
2021,04,03,01,29,6.40
2021,04,03,01,30,6.30
2021,04,03,01,31,6.30
2021,04,03,01,32,6.30
2021,04,03,01,33,6.30
2021,04,03,01,34,6.30
2021,04,03,01,35,6.30
2021,04,03,01,36,6.30
2021,04,03,01,37,6.30
2021,04,03,01,38,6.30
2021,04,03,01,39,6.30
2021,04,03,01,40,6.30
2021,04,03,01,41,6.30
2021,04,03,01,42,6.30
2021,04,03,01,43,6.20
2021,04,03,01,44,6.20
2021,04,03,01,45,6.20
2021,04,03,01,46,6.20
2021,04,03,01,47,6.20
2021,04,03,01,48,6.20
2021,04,03,01,49,6.20
2021,04,03,01,50,6.20
2021,04,03,01,51,6.20
2021,04,03,01,52,6.20
2021,04,03,01,53,6.20
2021,04,03,01,54,6.20
2021,04,03,01,55,6.20
2021,04,03,01,56,6.20
2021,04,03,01,57,6.20
2021,04,03,01,58,6.20
2021,04,03,01,59,6.20
2021,04,03,02,00,6.20
2021,04,03,02,01,6.20
2021,04,03,02,02,6.20
2021,04,03,02,03,6.20
2021,04,03,02,04,6.20
2021,04,03,02,05,6.20
2021,04,03,02,06,6.20
2021,04,03,02,07,6.20
2021,04,03,02,08,6.20
2021,04,03,02,09,6.20
2021,04,03,02,10,6.10
2021,04,03,02,11,6.10
2021,04,03,02,12,6.10
2021,04,03,02,13,6.10
2021,04,03,02,14,6.10
2021,04,03,02,15,6.10
2021,04,03,02,16,6.10
2021,04,03,02,17,6.20
2021,04,03,02,18,6.10
2021,04,03,02,19,6.20
2021,04,03,02,20,6.20
2021,04,03,02,21,6.20
2021,04,03,02,22,6.20
2021,04,03,02,23,6.20
2021,04,03,02,24,6.20
2021,04,03,02,25,6.20
2021,04,03,02,26,6.20
2021,04,03,02,27,6.20
2021,04,03,02,28,6.20
2021,04,03,02,29,6.20
2021,04,03,02,30,6.20
2021,04,03,02,31,6.20
2021,04,03,02,32,6.20
2021,04,03,02,33,6.20
2021,04,03,02,34,6.20
2021,04,03,02,35,6.20
2021,04,03,02,36,6.20
2021,04,03,02,37,6.20
2021,04,03,02,38,6.20
2021,04,03,02,39,6.20
2021,04,03,02,40,6.20
2021,04,03,02,41,6.20
2021,04,03,02,42,6.20
2021,04,03,02,43,6.20
2021,04,03,02,44,6.20
2021,04,03,02,45,6.30
2021,04,03,02,46,6.30
2021,04,03,02,47,6.30
2021,04,03,02,48,6.30
2021,04,03,02,49,6.30
2021,04,03,02,50,6.30
2021,04,03,02,51,6.30
2021,04,03,02,52,6.30
2021,04,03,02,53,6.30
2021,04,03,02,54,6.30
2021,04,03,02,55,6.30
2021,04,03,02,56,6.20
2021,04,03,02,57,6.20
2021,04,03,02,58,6.20
2021,04,03,02,59,6.20
2021,04,03,03,00,6.20
2021,04,03,03,01,6.20
2021,04,03,03,02,6.20
2021,04,03,03,03,6.10
2021,04,03,03,04,6.10
2021,04,03,03,05,6.10
2021,04,03,03,06,6.10
2021,04,03,03,07,6.10
2021,04,03,03,08,6.10
2021,04,03,03,09,6.10
2021,04,03,03,10,6.10
2021,04,03,03,11,6.10
2021,04,03,03,12,6.10
2021,04,03,03,13,6.10
2021,04,03,03,14,6.10
2021,04,03,03,15,6.10
2021,04,03,03,16,6.10
2021,04,03,03,17,6.10
2021,04,03,03,18,6.00
2021,04,03,03,19,6.00
2021,04,03,03,20,6.00
2021,04,03,03,21,6.00
2021,04,03,03,22,6.10
2021,04,03,03,23,6.10
2021,04,03,03,24,6.10
2021,04,03,03,25,6.10
2021,04,03,03,26,6.10
2021,04,03,03,27,6.10
2021,04,03,03,28,6.00
2021,04,03,03,29,6.00
2021,04,03,03,30,6.00
2021,04,03,03,31,6.00
2021,04,03,03,32,6.00
2021,04,03,03,33,6.00
2021,04,03,03,34,6.00
2021,04,03,03,35,6.00
2021,04,03,03,36,6.00
2021,04,03,03,37,6.00
2021,04,03,03,38,6.00
2021,04,03,03,39,6.00
2021,04,03,03,40,6.00
2021,04,03,03,41,6.00
2021,04,03,03,42,6.00
2021,04,03,03,43,6.00
2021,04,03,03,44,6.00
2021,04,03,03,45,6.00
2021,04,03,03,46,6.00
2021,04,03,03,47,6.00
2021,04,03,03,48,6.00
2021,04,03,03,49,6.00
2021,04,03,03,50,6.00
2021,04,03,03,51,6.00
2021,04,03,03,52,6.00
2021,04,03,03,53,6.00
2021,04,03,03,54,6.00
2021,04,03,03,55,6.10
2021,04,03,03,56,6.10
2021,04,03,03,57,6.10
2021,04,03,03,58,6.10
2021,04,03,03,59,6.10
2021,04,03,04,00,6.10
2021,04,03,04,01,6.10
2021,04,03,04,02,6.10
2021,04,03,04,03,6.10
2021,04,03,04,04,6.10
2021,04,03,04,05,6.10
2021,04,03,04,06,6.10
2021,04,03,04,07,6.10
2021,04,03,04,08,6.10
2021,04,03,04,09,6.10
2021,04,03,04,10,6.10
2021,04,03,04,11,6.10
2021,04,03,04,12,6.10
2021,04,03,04,13,6.10
2021,04,03,04,14,6.10
2021,04,03,04,15,6.10
2021,04,03,04,16,6.10
2021,04,03,04,17,6.20
2021,04,03,04,18,6.20
2021,04,03,04,19,6.20
2021,04,03,04,20,6.20
2021,04,03,04,21,6.20
2021,04,03,04,22,6.20
2021,04,03,04,23,6.20
2021,04,03,04,24,6.30
2021,04,03,04,25,6.30
2021,04,03,04,26,6.30
2021,04,03,04,27,6.30
2021,04,03,04,28,6.30
2021,04,03,04,29,6.30
2021,04,03,04,30,6.30
2021,04,03,04,31,6.30
2021,04,03,04,32,6.30
2021,04,03,04,33,6.30
2021,04,03,04,34,6.30
2021,04,03,04,35,6.30
2021,04,03,04,36,6.30
2021,04,03,04,37,6.30
2021,04,03,04,38,6.30
2021,04,03,04,39,6.30
2021,04,03,04,40,6.30
2021,04,03,04,41,6.40
2021,04,03,04,42,6.40
2021,04,03,04,43,6.40
2021,04,03,04,44,6.40
2021,04,03,04,45,6.40
2021,04,03,04,46,6.40
2021,04,03,04,47,6.40
2021,04,03,04,48,6.40
2021,04,03,04,49,6.40
2021,04,03,04,50,6.40
2021,04,03,04,51,6.40
2021,04,03,04,52,6.40
2021,04,03,04,53,6.40
2021,04,03,04,54,6.40
2021,04,03,04,55,6.40
2021,04,03,04,56,6.40
2021,04,03,04,57,6.30
2021,04,03,04,58,6.30
2021,04,03,04,59,6.30
2021,04,03,05,00,6.40
2021,04,03,05,01,6.40
2021,04,03,05,02,6.30
2021,04,03,05,03,6.30
2021,04,03,05,04,6.30
2021,04,03,05,05,6.30
2021,04,03,05,06,6.30
2021,04,03,05,07,6.30
2021,04,03,05,08,6.40
2021,04,03,05,09,6.40
2021,04,03,05,10,6.40
2021,04,03,05,11,6.40
2021,04,03,05,12,6.40
2021,04,03,05,13,6.40
2021,04,03,05,14,6.40
2021,04,03,05,15,6.40
2021,04,03,05,16,6.40
2021,04,03,05,17,6.50
2021,04,03,05,18,6.50
2021,04,03,05,19,6.50
2021,04,03,05,20,6.50
2021,04,03,05,21,6.60
2021,04,03,05,22,6.60
2021,04,03,05,23,6.60
2021,04,03,05,24,6.60
2021,04,03,05,25,6.60
2021,04,03,05,26,6.70
2021,04,03,05,27,6.70
2021,04,03,05,28,6.80
2021,04,03,05,29,6.80
2021,04,03,05,30,6.80
2021,04,03,05,31,6.80
2021,04,03,05,32,6.70
2021,04,03,05,33,6.70
2021,04,03,05,34,6.60
2021,04,03,05,35,6.60
2021,04,03,05,36,6.50
2021,04,03,05,37,6.50
2021,04,03,05,38,6.40
2021,04,03,05,39,6.40
2021,04,03,05,40,6.40
2021,04,03,05,41,6.40
2021,04,03,05,42,6.40
2021,04,03,05,43,6.30
2021,04,03,05,44,6.30
2021,04,03,05,45,6.30
2021,04,03,05,46,6.30
2021,04,03,05,47,6.30
2021,04,03,05,48,6.30
2021,04,03,05,49,6.30
2021,04,03,05,50,6.30
2021,04,03,05,51,6.30
2021,04,03,05,52,6.30
2021,04,03,05,53,6.30
2021,04,03,05,54,6.30
2021,04,03,05,55,6.30
2021,04,03,05,56,6.30
2021,04,03,05,57,6.30
2021,04,03,05,58,6.30
2021,04,03,05,59,6.20
2021,04,03,06,00,6.20
2021,04,03,06,01,6.20
2021,04,03,06,02,6.20
2021,04,03,06,03,6.20
2021,04,03,06,04,6.20
2021,04,03,06,05,6.20
2021,04,03,06,06,6.10
2021,04,03,06,07,6.10
2021,04,03,06,08,6.10
2021,04,03,06,09,6.10
2021,04,03,06,10,6.10
2021,04,03,06,11,6.10
2021,04,03,06,12,6.10
2021,04,03,06,13,6.10
2021,04,03,06,14,6.10
2021,04,03,06,15,6.10
2021,04,03,06,16,6.20
2021,04,03,06,17,6.20
2021,04,03,06,18,6.20
2021,04,03,06,19,6.20
2021,04,03,06,20,6.20
2021,04,03,06,21,6.10
2021,04,03,06,22,6.10
2021,04,03,06,23,6.10
2021,04,03,06,24,6.10
2021,04,03,06,25,6.10
2021,04,03,06,26,6.10
2021,04,03,06,27,6.10
2021,04,03,06,28,6.10
2021,04,03,06,29,6.10
2021,04,03,06,30,6.00
2021,04,03,06,31,6.00
2021,04,03,06,32,6.00
2021,04,03,06,33,6.00
2021,04,03,06,34,6.00
2021,04,03,06,35,6.00
2021,04,03,06,36,6.00
2021,04,03,06,37,6.00
2021,04,03,06,38,6.00
2021,04,03,06,39,6.00
2021,04,03,06,40,6.00
2021,04,03,06,41,6.00
2021,04,03,06,42,6.00
2021,04,03,06,43,6.00
2021,04,03,06,44,6.00
2021,04,03,06,45,6.10
2021,04,03,06,46,6.10
2021,04,03,06,47,6.10
2021,04,03,06,48,6.10
2021,04,03,06,49,6.10
2021,04,03,06,50,6.10
2021,04,03,06,51,6.10
2021,04,03,06,52,6.10
2021,04,03,06,53,6.10
2021,04,03,06,54,6.10
2021,04,03,06,55,6.10
2021,04,03,06,56,6.10
2021,04,03,06,57,6.10
2021,04,03,06,58,6.10
2021,04,03,06,59,6.10
2021,04,03,07,00,6.10
2021,04,03,07,01,6.10
2021,04,03,07,02,6.10
2021,04,03,07,03,6.10
2021,04,03,07,04,6.10
2021,04,03,07,05,6.10
2021,04,03,07,06,6.10
2021,04,03,07,07,6.20
2021,04,03,07,08,6.20
2021,04,03,07,09,6.20
2021,04,03,07,10,6.20
2021,04,03,07,11,6.20
2021,04,03,07,12,6.20
2021,04,03,07,13,6.20
2021,04,03,07,14,6.20
2021,04,03,07,15,6.20
2021,04,03,07,16,6.20
2021,04,03,07,17,6.20
2021,04,03,07,18,6.20
2021,04,03,07,19,6.30
2021,04,03,07,20,6.30
2021,04,03,07,21,6.30
2021,04,03,07,22,6.30
2021,04,03,07,23,6.30
2021,04,03,07,24,6.40
2021,04,03,07,25,6.40
2021,04,03,07,26,6.40
2021,04,03,07,27,6.40
2021,04,03,07,28,6.40
2021,04,03,07,29,6.40
2021,04,03,07,30,6.40
2021,04,03,07,31,6.40
2021,04,03,07,32,6.40
2021,04,03,07,33,6.40
2021,04,03,07,34,6.40
2021,04,03,07,35,6.50
2021,04,03,07,36,6.50
2021,04,03,07,37,6.50
2021,04,03,07,38,6.50
2021,04,03,07,39,6.50
2021,04,03,07,40,6.50
2021,04,03,07,41,6.50
2021,04,03,07,42,6.50
2021,04,03,07,43,6.50
2021,04,03,07,44,6.60
2021,04,03,07,45,6.60
2021,04,03,07,46,6.60
2021,04,03,07,47,6.60
2021,04,03,07,48,6.70
2021,04,03,07,49,6.70
2021,04,03,07,50,6.70
2021,04,03,07,51,6.70
2021,04,03,07,52,6.80
2021,04,03,07,53,6.80
2021,04,03,07,54,6.70
2021,04,03,07,55,6.70
2021,04,03,07,56,6.70
2021,04,03,07,57,6.70
2021,04,03,07,58,6.70
2021,04,03,07,59,6.70
2021,04,03,08,00,6.80
2021,04,03,08,01,6.80
2021,04,03,08,02,6.80
2021,04,03,08,03,6.80
2021,04,03,08,04,6.90
2021,04,03,08,05,6.90
2021,04,03,08,06,7.00
2021,04,03,08,07,7.00
2021,04,03,08,08,7.00
2021,04,03,08,09,7.10
2021,04,03,08,10,7.10
2021,04,03,08,11,7.10
2021,04,03,08,12,7.10
2021,04,03,08,13,7.20
2021,04,03,08,14,7.20
2021,04,03,08,15,7.20
2021,04,03,08,16,7.20
2021,04,03,08,17,7.20
2021,04,03,08,18,7.20
2021,04,03,08,19,7.30
2021,04,03,08,20,7.30
2021,04,03,08,21,7.30
2021,04,03,08,22,7.30
2021,04,03,08,23,7.30
2021,04,03,08,24,7.30
2021,04,03,08,25,7.40
2021,04,03,08,26,7.40
2021,04,03,08,27,7.40
2021,04,03,08,28,7.40
2021,04,03,08,29,7.40
2021,04,03,08,30,7.50
2021,04,03,08,31,7.50
2021,04,03,08,32,7.50
2021,04,03,08,33,7.60
2021,04,03,08,34,7.60
2021,04,03,08,35,7.60
2021,04,03,08,36,7.60
2021,04,03,08,37,7.60
2021,04,03,08,38,7.60
2021,04,03,08,39,7.60
2021,04,03,08,40,7.60
2021,04,03,08,41,7.60
2021,04,03,08,42,7.60
2021,04,03,08,43,7.60
2021,04,03,08,44,7.60
2021,04,03,08,45,7.60
2021,04,03,08,46,7.60
2021,04,03,08,47,7.60
2021,04,03,08,48,7.60
2021,04,03,08,49,7.70
2021,04,03,08,50,7.70
2021,04,03,08,51,7.70
2021,04,03,08,52,7.70
2021,04,03,08,53,7.70
2021,04,03,08,54,7.70
2021,04,03,08,55,7.70
2021,04,03,08,56,7.70
2021,04,03,08,57,7.70
2021,04,03,08,58,7.70
2021,04,03,08,59,7.70
2021,04,03,09,00,7.70
2021,04,03,09,01,7.70
2021,04,03,09,02,7.80
2021,04,03,09,03,7.80
2021,04,03,09,04,7.80
2021,04,03,09,05,7.80
2021,04,03,09,06,7.80
2021,04,03,09,07,7.80
2021,04,03,09,08,7.80
2021,04,03,09,09,7.80
2021,04,03,09,10,7.80
2021,04,03,09,11,7.80
2021,04,03,09,12,7.80
2021,04,03,09,13,7.80
2021,04,03,09,14,7.80
2021,04,03,09,15,7.90
2021,04,03,09,16,7.90
2021,04,03,09,17,7.90
2021,04,03,09,18,7.90
2021,04,03,09,19,7.90
2021,04,03,09,20,7.90
2021,04,03,09,21,7.90
2021,04,03,09,22,7.90
2021,04,03,09,23,7.90
2021,04,03,09,24,7.90
2021,04,03,09,25,7.90
2021,04,03,09,26,7.90
2021,04,03,09,27,7.90
2021,04,03,09,28,7.90
2021,04,03,09,29,7.90
2021,04,03,09,30,7.90
2021,04,03,09,31,7.90
2021,04,03,09,32,7.90
2021,04,03,09,33,7.90
2021,04,03,09,34,7.90
2021,04,03,09,35,7.90
2021,04,03,09,36,7.90
2021,04,03,09,37,7.90
2021,04,03,09,38,7.90
2021,04,03,09,39,7.90
2021,04,03,09,40,7.80
2021,04,03,09,41,7.80
2021,04,03,09,42,7.80
2021,04,03,09,43,7.80
2021,04,03,09,44,7.80
2021,04,03,09,45,7.80
2021,04,03,09,46,7.80
2021,04,03,09,47,7.80
2021,04,03,09,48,7.80
2021,04,03,09,49,7.80
2021,04,03,09,50,7.80
2021,04,03,09,51,7.80
2021,04,03,09,52,7.80
2021,04,03,09,53,7.80
2021,04,03,09,54,7.80
2021,04,03,09,55,7.80
2021,04,03,09,56,7.80
2021,04,03,09,57,7.80
2021,04,03,09,58,7.80
2021,04,03,09,59,7.80
2021,04,03,10,00,7.80
2021,04,03,10,01,7.80
2021,04,03,10,02,7.80
2021,04,03,10,03,7.80
2021,04,03,10,04,7.80
2021,04,03,10,05,7.80
2021,04,03,10,06,7.80
2021,04,03,10,07,7.80
2021,04,03,10,08,7.80
2021,04,03,10,09,7.80
2021,04,03,10,10,7.80
2021,04,03,10,11,7.80
2021,04,03,10,12,7.80
2021,04,03,10,13,7.80
2021,04,03,10,14,7.80
2021,04,03,10,15,7.80
2021,04,03,10,16,7.80
2021,04,03,10,17,7.80
2021,04,03,10,18,7.80
2021,04,03,10,19,7.80
2021,04,03,10,20,7.80
2021,04,03,10,21,7.80
2021,04,03,10,22,7.80
2021,04,03,10,23,7.80
2021,04,03,10,24,7.80
2021,04,03,10,25,7.80
2021,04,03,10,26,7.80
2021,04,03,10,27,7.80
2021,04,03,10,28,7.70
2021,04,03,10,29,7.70
2021,04,03,10,30,7.80
2021,04,03,10,31,7.80
2021,04,03,10,32,7.80
2021,04,03,10,33,7.80
2021,04,03,10,34,7.80
2021,04,03,10,35,7.80
2021,04,03,10,36,7.80
2021,04,03,10,37,7.80
2021,04,03,10,38,7.80
2021,04,03,10,39,7.70
2021,04,03,10,40,7.80
2021,04,03,10,41,7.80
2021,04,03,10,42,7.80
2021,04,03,10,43,7.80
2021,04,03,10,44,7.80
2021,04,03,10,45,7.80
2021,04,03,10,46,7.80
2021,04,03,10,47,7.80
2021,04,03,10,48,7.80
2021,04,03,10,49,7.80
2021,04,03,10,50,7.80
2021,04,03,10,51,7.80
2021,04,03,10,52,7.80
2021,04,03,10,53,7.80
2021,04,03,10,54,7.80
2021,04,03,10,55,7.80
2021,04,03,10,56,7.80
2021,04,03,10,57,7.80
2021,04,03,10,58,7.80
2021,04,03,10,59,7.80
2021,04,03,11,00,7.80
2021,04,03,11,01,7.80
2021,04,03,11,02,7.80
2021,04,03,11,03,7.90
2021,04,03,11,04,7.90
2021,04,03,11,05,7.90
2021,04,03,11,06,7.90
2021,04,03,11,07,7.90
2021,04,03,11,08,7.90
2021,04,03,11,09,7.90
2021,04,03,11,10,7.90
2021,04,03,11,11,7.90
2021,04,03,11,12,7.90
2021,04,03,11,13,7.90
2021,04,03,11,14,7.90
2021,04,03,11,15,7.90
2021,04,03,11,16,7.90
2021,04,03,11,17,7.90
2021,04,03,11,18,7.90
2021,04,03,11,19,7.90
2021,04,03,11,20,7.90
2021,04,03,11,21,7.90
2021,04,03,11,22,7.90
2021,04,03,11,23,7.90
2021,04,03,11,24,7.90
2021,04,03,11,25,7.90
2021,04,03,11,26,7.90
2021,04,03,11,27,7.90
2021,04,03,11,28,7.90
2021,04,03,11,29,7.90
2021,04,03,11,30,7.90
2021,04,03,11,31,7.90
2021,04,03,11,32,7.90
2021,04,03,11,33,7.90
2021,04,03,11,34,7.90
2021,04,03,11,35,7.90
2021,04,03,11,36,7.90
2021,04,03,11,37,7.90
2021,04,03,11,38,7.90
2021,04,03,11,39,8.00
2021,04,03,11,40,8.00
2021,04,03,11,41,8.00
2021,04,03,11,42,8.00
2021,04,03,11,43,8.10
2021,04,03,11,44,8.10
2021,04,03,11,45,8.10
2021,04,03,11,46,8.10
2021,04,03,11,47,8.10
2021,04,03,11,48,8.10
2021,04,03,11,49,8.10
2021,04,03,11,50,8.10
2021,04,03,11,51,8.10
2021,04,03,11,52,8.10
2021,04,03,11,53,8.10
2021,04,03,11,54,8.10
2021,04,03,11,55,8.10
2021,04,03,11,56,8.10
2021,04,03,11,57,8.10
2021,04,03,11,58,8.10
2021,04,03,11,59,8.10
2021,04,03,12,00,8.10
2021,04,03,12,01,8.10
2021,04,03,12,02,8.10
2021,04,03,12,03,8.10
2021,04,03,12,04,8.10
2021,04,03,12,05,8.10
2021,04,03,12,06,8.10
2021,04,03,12,07,8.10
2021,04,03,12,08,8.10
2021,04,03,12,09,8.10
2021,04,03,12,10,8.10
2021,04,03,12,11,8.20
2021,04,03,12,12,8.20
2021,04,03,12,13,8.20
2021,04,03,12,14,8.20
2021,04,03,12,15,8.30
2021,04,03,12,16,8.30
2021,04,03,12,17,8.30
2021,04,03,12,18,8.30
2021,04,03,12,19,8.30
2021,04,03,12,20,8.30
2021,04,03,12,21,8.30
2021,04,03,12,22,8.30
2021,04,03,12,23,8.40
2021,04,03,12,24,8.40
2021,04,03,12,25,8.40
2021,04,03,12,26,8.40
2021,04,03,12,27,8.40
2021,04,03,12,28,8.40
2021,04,03,12,29,8.50
2021,04,03,12,30,8.50
2021,04,03,12,31,8.50
2021,04,03,12,32,8.50
2021,04,03,12,33,8.50
2021,04,03,12,34,8.50
2021,04,03,12,35,8.50
2021,04,03,12,36,8.50
2021,04,03,12,37,8.50
2021,04,03,12,38,8.50
2021,04,03,12,39,8.40
2021,04,03,12,40,8.40
2021,04,03,12,41,8.40
2021,04,03,12,42,8.40
2021,04,03,12,43,8.40
2021,04,03,12,44,8.40
2021,04,03,12,45,8.40
2021,04,03,12,46,8.30
2021,04,03,12,47,8.30
2021,04,03,12,48,8.30
2021,04,03,12,49,8.30
2021,04,03,12,50,8.30
2021,04,03,12,51,8.30
2021,04,03,12,52,8.30
2021,04,03,12,53,8.30
2021,04,03,12,54,8.30
2021,04,03,12,55,8.30
2021,04,03,12,56,8.30
2021,04,03,12,57,8.20
2021,04,03,12,58,8.30
2021,04,03,12,59,8.30
2021,04,03,13,00,8.30
2021,04,03,13,01,8.30
2021,04,03,13,02,8.30
2021,04,03,13,03,8.30
2021,04,03,13,04,8.30
2021,04,03,13,05,8.30
2021,04,03,13,06,8.40
2021,04,03,13,07,8.40
2021,04,03,13,08,8.40
2021,04,03,13,09,8.30
2021,04,03,13,10,8.30
2021,04,03,13,11,8.30
2021,04,03,13,12,8.30
2021,04,03,13,13,8.30
2021,04,03,13,14,8.30
2021,04,03,13,15,8.30
2021,04,03,13,16,8.30
2021,04,03,13,17,8.30
2021,04,03,13,18,8.30
2021,04,03,13,19,8.30
2021,04,03,13,20,8.30
2021,04,03,13,21,8.30
2021,04,03,13,22,8.30
2021,04,03,13,23,8.30
2021,04,03,13,24,8.30
2021,04,03,13,25,8.30
2021,04,03,13,26,8.30
2021,04,03,13,27,8.30
2021,04,03,13,28,8.30
2021,04,03,13,29,8.30
2021,04,03,13,30,8.30
2021,04,03,13,31,8.30
2021,04,03,13,32,8.30
2021,04,03,13,33,8.30
2021,04,03,13,34,8.30
2021,04,03,13,35,8.30
2021,04,03,13,36,8.30
2021,04,03,13,37,8.30
2021,04,03,13,38,8.40
2021,04,03,13,39,8.40
2021,04,03,13,40,8.40
2021,04,03,13,41,8.40
2021,04,03,13,42,8.40
2021,04,03,13,43,8.50
2021,04,03,13,44,8.50
2021,04,03,13,45,8.50
2021,04,03,13,46,8.60
2021,04,03,13,47,8.60
2021,04,03,13,48,8.60
2021,04,03,13,49,8.70
2021,04,03,13,50,8.70
2021,04,03,13,51,8.70
2021,04,03,13,52,8.70
2021,04,03,13,53,8.70
2021,04,03,13,54,8.70
2021,04,03,13,55,8.70
2021,04,03,13,56,8.70
2021,04,03,13,57,8.70
2021,04,03,13,58,8.80
2021,04,03,13,59,8.80
2021,04,03,14,00,8.80
2021,04,03,14,01,8.80
2021,04,03,14,02,8.80
2021,04,03,14,03,8.90
2021,04,03,14,04,8.90
2021,04,03,14,05,8.90
2021,04,03,14,06,8.90
2021,04,03,14,07,8.90
2021,04,03,14,08,8.90
2021,04,03,14,09,8.90
2021,04,03,14,10,8.90
2021,04,03,14,11,8.90
2021,04,03,14,12,8.80
2021,04,03,14,13,8.80
2021,04,03,14,14,8.90
2021,04,03,14,15,8.90
2021,04,03,14,16,8.90
2021,04,03,14,17,8.90
2021,04,03,14,18,8.90
2021,04,03,14,19,8.90
2021,04,03,14,20,8.90
2021,04,03,14,21,8.90
2021,04,03,14,22,9.00
2021,04,03,14,23,9.00
2021,04,03,14,24,9.00
2021,04,03,14,25,9.00
2021,04,03,14,26,9.10
2021,04,03,14,27,9.10
2021,04,03,14,28,9.10
2021,04,03,14,29,9.10
2021,04,03,14,30,9.10
2021,04,03,14,31,9.10
2021,04,03,14,32,9.10
2021,04,03,14,33,9.00
2021,04,03,14,34,9.00
2021,04,03,14,35,9.00
2021,04,03,14,36,9.00
2021,04,03,14,37,9.00
2021,04,03,14,38,9.00
2021,04,03,14,39,9.00
2021,04,03,14,40,9.10
2021,04,03,14,41,9.10
2021,04,03,14,42,9.10
2021,04,03,14,43,9.10
2021,04,03,14,44,9.10
2021,04,03,14,45,9.10
2021,04,03,14,46,9.10
2021,04,03,14,47,9.10
2021,04,03,14,48,9.10
2021,04,03,14,49,9.10
2021,04,03,14,50,9.20
2021,04,03,14,51,9.20
2021,04,03,14,52,9.20
2021,04,03,14,53,9.20
2021,04,03,14,54,9.20
2021,04,03,14,55,9.30
2021,04,03,14,56,9.30
2021,04,03,14,57,9.20
2021,04,03,14,58,9.30
2021,04,03,14,59,9.30
2021,04,03,15,00,9.30
2021,04,03,15,01,9.30
2021,04,03,15,02,9.20
2021,04,03,15,03,9.20
2021,04,03,15,04,9.20
2021,04,03,15,05,9.10
2021,04,03,15,06,9.10
2021,04,03,15,07,9.10
2021,04,03,15,08,9.10
2021,04,03,15,09,9.10
2021,04,03,15,10,9.00
2021,04,03,15,11,9.00
2021,04,03,15,12,8.90
2021,04,03,15,13,8.90
2021,04,03,15,14,8.90
2021,04,03,15,15,8.90
2021,04,03,15,16,8.80
2021,04,03,15,17,8.80
2021,04,03,15,18,8.80
2021,04,03,15,19,8.80
2021,04,03,15,20,8.80
2021,04,03,15,21,8.90
2021,04,03,15,22,8.90
2021,04,03,15,23,8.90
2021,04,03,15,24,8.90
2021,04,03,15,25,8.90
2021,04,03,15,26,9.00
2021,04,03,15,27,9.00
2021,04,03,15,28,9.10
2021,04,03,15,29,9.20
2021,04,03,15,30,9.30
2021,04,03,15,31,9.40
2021,04,03,15,32,9.50
2021,04,03,15,33,9.50
2021,04,03,15,34,9.60
2021,04,03,15,35,9.70
2021,04,03,15,36,9.70
2021,04,03,15,37,9.70
2021,04,03,15,38,9.60
2021,04,03,15,39,9.60
2021,04,03,15,40,9.50
2021,04,03,15,41,9.40
2021,04,03,15,42,9.30
2021,04,03,15,43,9.30
2021,04,03,15,44,9.20
2021,04,03,15,45,9.20
2021,04,03,15,46,9.10
2021,04,03,15,47,9.10
2021,04,03,15,48,9.00
2021,04,03,15,49,9.00
2021,04,03,15,50,8.90
2021,04,03,15,51,8.90
2021,04,03,15,52,8.90
2021,04,03,15,53,8.90
2021,04,03,15,54,8.80
2021,04,03,15,55,8.80
2021,04,03,15,56,8.80
2021,04,03,15,57,8.80
2021,04,03,15,58,8.80
2021,04,03,15,59,8.80
2021,04,03,16,00,8.90
2021,04,03,16,01,8.90
2021,04,03,16,02,9.00
2021,04,03,16,03,9.00
2021,04,03,16,04,9.10
2021,04,03,16,05,9.20
2021,04,03,16,06,9.20
2021,04,03,16,07,9.20
2021,04,03,16,08,9.20
2021,04,03,16,09,9.20
2021,04,03,16,10,9.20
2021,04,03,16,11,9.20
2021,04,03,16,12,9.20
2021,04,03,16,13,9.20
2021,04,03,16,14,9.20
2021,04,03,16,15,9.20
2021,04,03,16,16,9.30
2021,04,03,16,17,9.40
2021,04,03,16,18,9.50
2021,04,03,16,19,9.50
2021,04,03,16,20,9.60
2021,04,03,16,21,9.70
2021,04,03,16,22,9.70
2021,04,03,16,23,9.80
2021,04,03,16,24,9.80
2021,04,03,16,25,9.90
2021,04,03,16,26,10.00
2021,04,03,16,27,10.00
2021,04,03,16,28,10.10
2021,04,03,16,29,10.10
2021,04,03,16,30,10.10
2021,04,03,16,31,10.10
2021,04,03,16,32,10.10
2021,04,03,16,33,10.10
2021,04,03,16,34,10.10
2021,04,03,16,35,10.20
2021,04,03,16,36,10.20
2021,04,03,16,37,10.20
2021,04,03,16,38,10.20
2021,04,03,16,39,10.10
2021,04,03,16,40,10.00
2021,04,03,16,41,9.90
2021,04,03,16,42,9.80
2021,04,03,16,43,9.70
2021,04,03,16,44,9.60
2021,04,03,16,45,9.50
2021,04,03,16,46,9.40
2021,04,03,16,47,9.40
2021,04,03,16,48,9.30
2021,04,03,16,49,9.30
2021,04,03,16,50,9.20
2021,04,03,16,51,9.20
2021,04,03,16,52,9.30
2021,04,03,16,53,9.40
2021,04,03,16,54,9.50
2021,04,03,16,55,9.70
2021,04,03,16,56,9.80
2021,04,03,16,57,9.90
2021,04,03,16,58,10.00
2021,04,03,16,59,10.10
2021,04,03,17,00,10.20
2021,04,03,17,01,10.30
2021,04,03,17,02,10.30
2021,04,03,17,03,10.40
2021,04,03,17,04,10.50
2021,04,03,17,05,10.60
2021,04,03,17,06,10.70
2021,04,03,17,07,10.80
2021,04,03,17,08,11.00
2021,04,03,17,09,11.10
2021,04,03,17,10,11.30
2021,04,03,17,11,11.40
2021,04,03,17,12,11.50
2021,04,03,17,13,11.60
2021,04,03,17,14,11.70
2021,04,03,17,15,11.80
2021,04,03,17,16,11.80
2021,04,03,17,17,11.90
2021,04,03,17,18,11.90
2021,04,03,17,19,11.90
2021,04,03,17,20,12.00
2021,04,03,17,21,12.00
2021,04,03,17,22,12.10
2021,04,03,17,23,12.10
2021,04,03,17,24,12.10
2021,04,03,17,25,12.10
2021,04,03,17,26,12.10
2021,04,03,17,27,12.10
2021,04,03,17,28,12.10
2021,04,03,17,29,12.10
2021,04,03,17,30,12.10
2021,04,03,17,31,12.10
2021,04,03,17,32,12.10
2021,04,03,17,33,12.10
2021,04,03,17,34,12.10
2021,04,03,17,35,12.10
2021,04,03,17,36,12.10
2021,04,03,17,37,12.10
2021,04,03,17,38,12.10
2021,04,03,17,39,12.10
2021,04,03,17,40,12.10
2021,04,03,17,41,12.10
2021,04,03,17,42,12.10
2021,04,03,17,43,12.10
2021,04,03,17,44,12.00
2021,04,03,17,45,12.00
2021,04,03,17,46,12.00
2021,04,03,17,47,12.00
2021,04,03,17,48,12.00
2021,04,03,17,49,11.90
2021,04,03,17,50,11.90
2021,04,03,17,51,11.90
2021,04,03,17,52,11.80
2021,04,03,17,53,11.80
2021,04,03,17,54,11.80
2021,04,03,17,55,11.80
2021,04,03,17,56,11.80
2021,04,03,17,57,11.80
2021,04,03,17,58,11.80
2021,04,03,17,59,11.70
2021,04,03,18,00,11.70
2021,04,03,18,01,11.70
2021,04,03,18,02,11.70
2021,04,03,18,03,11.60